Location: Albany
(35.0000°S, 118.0000°E)
Time: 12:10:07
(UTC-04:00)

Vanguard 3 - Visible Passes

Search period start: 19 October 2017 00:00
Search period end: 29 October 2017 00:00
Orbit: 510 x 3263 km, 33.3° (Epoch: 18 October)

Date Brightness Start Highest point End Pass type
(mag) Time Alt. Az. Time Alt. Az. Time Alt. Az.
19 Oct 9.6 08:08:23 10° W 08:21:11 81° N 08:33:03 30° ENE visible
19 Oct 9.9 10:21:45 10° W 10:37:32 57° NNW 10:37:35 57° NNW visible
19 Oct 11.1 12:38:34 10° W 12:42:08 16° W 12:42:08 16° W visible
20 Oct 9.4 06:54:38 10° W 07:05:13 84° N 07:22:57 11° E visible
20 Oct 9.7 09:07:04 10° W 09:21:06 69° NNW 09:27:30 49° NE visible
20 Oct 10.5 11:21:34 10° W 11:32:02 35° WNW 11:32:02 35° WNW visible
21 Oct 9.5 07:53:00 10° W 08:04:54 78° NNW 08:17:25 26° ENE visible
21 Oct 10.0 10:06:06 10° W 10:20:50 52° NNW 10:21:58 52° NNW visible
21 Oct 11.1 12:23:12 10° W 12:26:30 15° WNW 12:26:30 15° WNW visible
22 Oct 9.3 06:39:24 10° W 06:49:12 83° N 07:06:28 10° E visible
22 Oct 9.7 08:51:34 10° W 09:04:37 64° NNW 09:11:56 43° NE visible
22 Oct 10.5 11:06:01 10° W 11:16:28 33° NW 11:16:28 33° NW visible
23 Oct 9.4 07:37:41 10° W 07:48:42 74° NNW 08:01:56 22° ENE visible
23 Oct 10.0 09:50:35 10° W 10:04:14 47° NNW 10:06:28 45° NNW visible
23 Oct 11.1 12:08:16 10° W 12:11:01 14° WNW 12:11:01 14° WNW visible
24 Oct 9.7 08:36:10 10° W 08:48:14 58° NNW 08:56:31 36° NE visible
24 Oct 10.6 10:50:43 10° W 11:01:04 29° NW 11:01:04 29° NW visible
25 Oct 9.4 07:22:25 10° W 07:32:36 69° NNW 07:46:37 18° ENE visible
25 Oct 10.1 09:35:14 10° W 09:47:45 41° NNW 09:51:10 38° N visible
25 Oct 11.2 11:54:00 10° WNW 11:55:43 12° WNW 11:55:43 12° WNW visible
26 Oct 9.7 08:20:53 10° W 08:31:59 52° NNW 08:41:18 29° NNE visible
26 Oct 10.6 10:35:41 10° W 10:45:51 25° NW 10:45:51 25° NW visible
27 Oct 9.3 07:07:13 10° W 07:16:35 63° NNW 07:31:28 13° ENE visible
27 Oct 10.2 09:20:04 10° W 09:31:24 35° NNW 09:36:02 31° N visible
28 Oct 9.8 08:05:42 10° W 08:15:51 46° NNW 08:26:16 23° NNE visible
28 Oct 10.8 10:21:04 10° WNW 10:30:49 21° NW 10:30:50 21° NW visible
